La Motte, IA

10:49 PM CDT on September 25, 2016 (GMT -0500)
Dubuque Regional

Weather History for KDBQ - January, 2013

Change the Weather History Date:

Monday, January 7, 2013

  Actual Average Record
Temperature  
Mean Temperature 22 °F 19 °F  
Max Temperature 35 °F 26 °F 51 °F (1949)
Min Temperature 9 °F 11 °F -32 °F (1887)
Degree Days  
Heating Degree Days 43 46  
Month to date heating degree days 341 322  
Since 1 July heating degree days 3021 3132  
Cooling Degree Days 0 0  
Month to date cooling degree days 0 0  
Year to date cooling degree days 0 0  
Moisture  
Dew Point 18 °F    
Average Humidity 76    
Maximum Humidity 92    
Minimum Humidity 59    
Precipitation  
Precipitation 0.00 in 0.04 in 0.78 in (1973)
Month to date precipitation T 0.28  
Year to date precipitation T 0.28  
Snow  
Snow 0.00 in 0.40 in - ()
Month to date snowfall T 2.3  
Since 1 July snowfall 19.2 16.9  
Snow Depth 5.00 in    
Sea Level Pressure  
Sea Level Pressure 30.14 in    
Wind  
Wind Speed 13 mph (SSW)    
Max Wind Speed 32 mph    
Max Gust Speed 40 mph    
Visibility 10 miles    
Events      
T = Trace of Precipitation, MM = Missing Value Source: NWS Daily Summary

Daily Weather History Graph

Daily Weather History Graph

Search for Another Location

Airport or City:

Trip Planner

Search our weather history database for the weather conditions in past years. The results will help you decide how hot, cold, wet, or windy it might be!

Date:

Astronomy

Jan. 07, 2013 Rise Set
Actual Time 7:31 AM CST 4:46 PM CST
Civil Twilight 7:00 AM CST 5:18 PM CST
Nautical Twilight 6:25 AM CST 5:53 PM CST
Astronomical Twilight 5:51 AM CST 6:27 PM CST
Moon 2:54 AM CST (1/7) 12:58 PM CST (1/7)
Length of Visible Light 10h 18m
Length of Day
9h 14m
Waning Crescent, 22% of the Moon is Illuminated
Jan 7
Waning Crescent
Jan 11
New
Jan 18
First Quarter
Jan 26
Full
Feb 3
Last Quarter

Hourly Weather History & Observations

Time (CST) Temp. Windchill Dew Point Humidity Pressure Visibility Wind Dir Wind Speed Gust Speed Precip Events Conditions
12:53 AM 10.0 °F 1.8 °F 7.0 °F 87% 30.30 in 10.0 mi South 4.6 mph - N/A   Clear
1:53 AM 12.0 °F -1.3 °F 9.0 °F 88% 30.29 in 10.0 mi South 10.4 mph - N/A   Clear
2:53 AM 15.1 °F 3.3 °F 10.9 °F 84% 30.28 in 10.0 mi SSW 9.2 mph - N/A   Clear
3:53 AM 14.0 °F 0.5 °F 10.0 °F 84% 30.27 in 10.0 mi SSW 11.5 mph - N/A   Clear
4:53 AM 14.0 °F 0.5 °F 10.0 °F 84% 30.25 in 10.0 mi South 11.5 mph - N/A   Clear
5:53 AM 16.0 °F 1.1 °F 12.0 °F 84% 30.22 in 10.0 mi South 15.0 mph - N/A   Clear
6:53 AM 18.0 °F 1.3 °F 14.0 °F 84% 30.19 in 10.0 mi South 20.7 mph - N/A   Clear
7:53 AM 19.0 °F 4.0 °F 14.0 °F 81% 30.20 in 8.0 mi SSW 17.3 mph - N/A   Clear
8:53 AM 21.0 °F 5.0 °F 16.0 °F 81% 30.18 in 8.0 mi South 21.9 mph - N/A   Clear
9:53 AM 26.1 °F 12.0 °F 18.0 °F 71% 30.17 in 10.0 mi South 20.7 mph - N/A   Clear
10:53 AM 28.0 °F 14.9 °F 19.9 °F 72% 30.15 in 10.0 mi South 19.6 mph - N/A   Clear
11:53 AM 30.9 °F 17.5 °F 21.9 °F 69% 30.09 in 10.0 mi South 24.2 mph 32.2 mph N/A   Clear
12:53 PM 35.6 °F 25.2 °F 23.0 °F 60% 30.03 in 10.0 mi SW 18.4 mph 28.8 mph N/A   Clear
1:53 PM 34.0 °F 23.4 °F 24.1 °F 67% 30.07 in 10.0 mi SSW 17.3 mph - N/A   Clear
2:53 PM 35.1 °F 25.5 °F 24.1 °F 64% 30.07 in 10.0 mi SSW 15.0 mph - N/A   Clear
3:53 PM 34.0 °F 26.0 °F 25.0 °F 70% 30.07 in 10.0 mi SSW 10.4 mph - N/A   Clear
4:53 PM 32.0 °F 22.5 °F 24.8 °F 75% 30.02 in 10.0 mi SSW 12.7 mph - N/A   Clear
5:53 PM 30.0 °F 21.7 °F 23.0 °F 75% 30.08 in 10.0 mi South 9.2 mph - N/A   Clear
6:53 PM 27.0 °F 18.7 °F 21.9 °F 81% 30.08 in 10.0 mi South 8.1 mph - N/A   Clear
7:53 PM 27.0 °F 18.7 °F 21.9 °F 81% 30.08 in 10.0 mi South 8.1 mph - N/A   Clear
8:53 PM 26.1 °F 18.4 °F 21.0 °F 81% 30.08 in 10.0 mi SSW 6.9 mph - N/A   Clear
9:53 PM 27.0 °F 17.3 °F 21.9 °F 81% 30.07 in 10.0 mi South 10.4 mph - N/A   Clear
10:53 PM 25.0 °F 15.5 °F 21.9 °F 88% 30.06 in 10.0 mi SSW 9.2 mph - N/A   Clear
11:53 PM 24.1 °F 14.4 °F 21.0 °F 88% 30.06 in 9.0 mi SSW 9.2 mph - N/A   Clear